When you browse on this site, cookies collect data to enhance your experience and personalize the content and advertising you see.
Visit our Privacy Policy to learn more. By continuing to use the site, you agree to this use of cookies and data.
  • In Schweiz
  • Länderverzeichnis
  • Für 7 Tage
  • Wassertemperatur
  • Satellitenkarten
  • Wetterkarte
  • Widgets
  • user-avatar
    Anmelden

    Stündliche Wetter Kanje

    Heute, 22 Januar, Dienstag

    Zeit Temperatur Niederschläge Wind Luftdruck Luftfeuchtigkeit
    00:00 +24°C° 0 mm 2 m/S 652 mmHg 32%
    01:00 +23°C° 0 mm 1 m/S 652 mmHg 33%
    02:00 +23°C° 0 mm 1 m/S 651 mmHg 34%
    03:00 +22°C° 0 mm 1 m/S 651 mmHg 35%
    04:00 +21°C° 0 mm 1 m/S 651 mmHg 37%
    05:00 +21°C° 0 mm 1 m/S 651 mmHg 38%
    06:00 +23°C° 0 mm 1 m/S 652 mmHg 35%
    07:00 +25°C° 0 mm 2 m/S 652 mmHg 32%
    08:00 +26°C° 0 mm 3 m/S 653 mmHg 29%
    09:00 +28°C° 0 mm 3 m/S 653 mmHg 26%
    10:00 +30°C° 0 mm 3 m/S 654 mmHg 24%
    11:00 +33°C° 0 mm 3 m/S 654 mmHg 21%
    12:00 +34°C° 0 mm 3 m/S 654 mmHg 19%
    13:00 +35°C° 0 mm 3 m/S 653 mmHg 17%
    14:00 +36°C° 0 mm 4 m/S 653 mmHg 15%
    15:00 +36°C° 0 mm 3 m/S 652 mmHg 14%
    16:00 +36°C° 0 mm 3 m/S 652 mmHg 14%
    17:00 +36°C° 0 mm 2 m/S 651 mmHg 13%
    18:00 +34°C° 0 mm 2 m/S 651 mmHg 15%
    19:00 +31°C° 0 mm 2 m/S 650 mmHg 17%
    20:00 +29°C° 0 mm 2 m/S 650 mmHg 19%
    21:00 +29°C° 0 mm 2 m/S 650 mmHg 19%
    22:00 +28°C° 0 mm 2 m/S 650 mmHg 19%
    23:00 +27°C° 0 mm 2 m/S 650 mmHg 19%

    Morgen, 23 Januar, Mittwoch

    Zeit Temperatur Niederschläge Wind Luftdruck Luftfeuchtigkeit
    00:00 +27°C° 0 mm 2 m/S 650 mmHg 18%
    01:00 +27°C° 0 mm 2 m/S 650 mmHg 18%
    02:00 +27°C° 0 mm 2 m/S 650 mmHg 17%
    03:00 +26°C° 0 mm 2 m/S 649 mmHg 18%
    04:00 +25°C° 0 mm 2 m/S 649 mmHg 19%
    05:00 +24°C° 0 mm 2 m/S 649 mmHg 20%
    06:00 +26°C° 0 mm 1 m/S 650 mmHg 20%
    07:00 +27°C° 0 mm 1 m/S 650 mmHg 20%
    08:00 +28°C° 0 mm 1 m/S 651 mmHg 19%
    09:00 +31°C° 0 mm 1 m/S 652 mmHg 18%
    10:00 +33°C° 0 mm 1 m/S 652 mmHg 16%
    11:00 +36°C° 0 mm 1 m/S 652 mmHg 14%
    12:00 +36°C° 0 mm 1 m/S 652 mmHg 14%
    13:00 +37°C° 0 mm 1 m/S 651 mmHg 14%
    14:00 +39°C° 0 mm 1 m/S 651 mmHg 13%
    15:00 +37°C° 0 mm 1 m/S 650 mmHg 14%
    16:00 +37°C° 0 mm 1 m/S 650 mmHg 14%
    17:00 +36°C° 0 mm 1 m/S 649 mmHg 15%
    18:00 +35°C° 0 mm 1 m/S 649 mmHg 17%
    19:00 +33°C° 0 mm 1 m/S 649 mmHg 19%
    20:00 +32°C° 0 mm 1 m/S 649 mmHg 20%
    21:00 +31°C° 0 mm 1 m/S 649 mmHg 22%
    22:00 +30°C° 0 mm 1 m/S 649 mmHg 23%
    23:00 +29°C° 0 mm 1 m/S 649 mmHg 25%

    übermorgen, 24 Januar, Donnerstag

    Zeit Temperatur Niederschläge Wind Luftdruck Luftfeuchtigkeit
    00:00 +28°C° 0 mm 1 m/S 648 mmHg 24%
    01:00 +28°C° 0 mm 2 m/S 648 mmHg 24%
    02:00 +28°C° 0 mm 2 m/S 648 mmHg 23%
    03:00 +28°C° 0 mm 2 m/S 648 mmHg 24%
    04:00 +27°C° 0 mm 2 m/S 648 mmHg 25%
    05:00 +27°C° 0 mm 2 m/S 649 mmHg 25%
    06:00 +28°C° 0 mm 2 m/S 649 mmHg 25%
    07:00 +29°C° 0 mm 3 m/S 650 mmHg 25%
    08:00 +30°C° 0 mm 3 m/S 651 mmHg 25%
    09:00 +31°C° 0 mm 3 m/S 651 mmHg 23%
    10:00 +34°C° 0 mm 4 m/S 651 mmHg 21%
    11:00 +36°C° 0 mm 4 m/S 652 mmHg 19%
    12:00 +37°C° 0 mm 3 m/S 651 mmHg 18%
    13:00 +38°C° 0 mm 3 m/S 651 mmHg 17%
    14:00 +39°C° 0 mm 2 m/S 650 mmHg 15%
    15:00 +38°C° 0 mm 2 m/S 650 mmHg 16%
    16:00 +37°C° 0 mm 1 m/S 649 mmHg 16%
    17:00 +35°C° 0 mm 0 m/S 649 mmHg 17%
    18:00 +35°C° 0 mm 1 m/S 649 mmHg 19%
    19:00 +34°C° 0 mm 2 m/S 648 mmHg 20%
    20:00 +32°C° 0 mm 2 m/S 648 mmHg 22%
    21:00 +31°C° 0 mm 2 m/S 649 mmHg 22%
    22:00 +31°C° 0 mm 3 m/S 649 mmHg 23%
    23:00 +31°C° 0 mm 3 m/S 650 mmHg 23%

    25 Januar, Freitag

    Zeit Temperatur Niederschläge Wind Luftdruck Luftfeuchtigkeit
    00:00 +30°C° 0 mm 3 m/S 650 mmHg 28%
    01:00 +29°C° 0 mm 3 m/S 649 mmHg 32%
    02:00 +28°C° 0 mm 3 m/S 649 mmHg 37%
    03:00 +27°C° 0 mm 3 m/S 650 mmHg 40%
    04:00 +26°C° 0 mm 4 m/S 650 mmHg 43%
    05:00 +26°C° 0 mm 5 m/S 650 mmHg 46%
    06:00 +26°C° 0 mm 5 m/S 651 mmHg 44%
    07:00 +26°C° 0 mm 6 m/S 651 mmHg 42%
    08:00 +27°C° 0 mm 7 m/S 652 mmHg 40%
    09:00 +29°C° 0 mm 7 m/S 652 mmHg 38%
    10:00 +30°C° 0 mm 7 m/S 653 mmHg 36%
    11:00 +33°C° 0 mm 7 m/S 653 mmHg 33%
    12:00 +34°C° 0 mm 7 m/S 653 mmHg 30%
    13:00 +36°C° 0 mm 6 m/S 652 mmHg 27%
    14:00 +38°C° 0 mm 6 m/S 652 mmHg 23%
    15:00 +38°C° 0 mm 6 m/S 651 mmHg 22%
    16:00 +37°C° 0 mm 5 m/S 651 mmHg 21%
    17:00 +37°C° 0 mm 5 m/S 651 mmHg 20%
    18:00 +35°C° 0.5 mm 5 m/S 650 mmHg 27%
    19:00 +32°C° 0.5 mm 5 m/S 650 mmHg 33%
    20:00 +29°C° 0.5 mm 5 m/S 650 mmHg 40%
    21:00 +28°C° 0.1 mm 5 m/S 650 mmHg 43%
    22:00 +27°C° 0.1 mm 5 m/S 650 mmHg 46%
    23:00 +26°C° 0.1 mm 5 m/S 651 mmHg 49%

    26 Januar, Samstag

    Zeit Temperatur Niederschläge Wind Luftdruck Luftfeuchtigkeit
    00:00 +25°C° 0 mm 5 m/S 651 mmHg 54%
    01:00 +23°C° 0 mm 5 m/S 650 mmHg 60%
    02:00 +22°C° 0 mm 5 m/S 650 mmHg 65%
    03:00 +22°C° 0 mm 5 m/S 650 mmHg 64%
    04:00 +22°C° 0 mm 5 m/S 650 mmHg 63%
    05:00 +22°C° 0 mm 5 m/S 650 mmHg 62%
    06:00 +22°C° 0 mm 5 m/S 651 mmHg 61%
    07:00 +23°C° 0 mm 6 m/S 651 mmHg 60%
    08:00 +24°C° 0 mm 7 m/S 652 mmHg 59%
    09:00 +27°C° 0 mm 7 m/S 653 mmHg 52%
    10:00 +29°C° 0 mm 7 m/S 653 mmHg 45%
    11:00 +32°C° 0 mm 7 m/S 654 mmHg 38%
    12:00 +34°C° 0 mm 6 m/S 653 mmHg 34%
    13:00 +35°C° 0 mm 5 m/S 653 mmHg 30%
    14:00 +37°C° 0 mm 4 m/S 653 mmHg 25%
    15:00 +36°C° 0.1 mm 4 m/S 652 mmHg 27%
    16:00 +35°C° 0.1 mm 4 m/S 651 mmHg 28%
    17:00 +34°C° 0.1 mm 4 m/S 651 mmHg 30%
    18:00 +30°C° 6.1 mm 4 m/S 650 mmHg 42%
    19:00 +27°C° 6.1 mm 4 m/S 650 mmHg 53%
    20:00 +23°C° 6.1 mm 4 m/S 649 mmHg 65%
    21:00 +23°C° 0.7 mm 4 m/S 650 mmHg 64%
    22:00 +25°C° 0.7 mm 4 m/S 650 mmHg 63%
    23:00 +25°C° 0.7 mm 4 m/S 651 mmHg 61%

    27 Januar, Sonntag

    Zeit Temperatur Niederschläge Wind Luftdruck Luftfeuchtigkeit
    00:00 +24°C° 0 mm 3 m/S 650 mmHg 63%
    01:00 +24°C° 0 mm 3 m/S 650 mmHg 64%
    02:00 +22°C° 0 mm 3 m/S 649 mmHg 66%
    03:00 +22°C° 0 mm 4 m/S 649 mmHg 72%
    04:00 +21°C° 0 mm 4 m/S 650 mmHg 78%
    05:00 +20°C° 0 mm 5 m/S 650 mmHg 84%
    06:00 +21°C° 0 mm 6 m/S 650 mmHg 82%
    07:00 +21°C° 0 mm 7 m/S 651 mmHg 79%
    08:00 +21°C° 0 mm 8 m/S 652 mmHg 77%
    09:00 +22°C° 0 mm 8 m/S 652 mmHg 72%
    10:00 +23°C° 0 mm 8 m/S 652 mmHg 68%
    11:00 +26°C° 0 mm 8 m/S 652 mmHg 63%
    12:00 +27°C° 0 mm 7 m/S 652 mmHg 57%
    13:00 +29°C° 0 mm 6 m/S 652 mmHg 52%
    14:00 +32°C° 0 mm 6 m/S 652 mmHg 46%
    15:00 +33°C° 0 mm 5 m/S 651 mmHg 42%
    16:00 +34°C° 0 mm 5 m/S 651 mmHg 39%
    17:00 +34°C° 0 mm 4 m/S 651 mmHg 35%
    18:00 +33°C° 0 mm 4 m/S 650 mmHg 39%
    19:00 +30°C° 0 mm 5 m/S 650 mmHg 42%
    20:00 +29°C° 0 mm 5 m/S 650 mmHg 46%
    21:00 +27°C° 3.3 mm 6 m/S 650 mmHg 57%
    22:00 +24°C° 3.3 mm 6 m/S 651 mmHg 67%
    23:00 +22°C° 3.3 mm 7 m/S 651 mmHg 78%
    Mehr zeigen